SCP
0 0 0 0 0 0 0 0 0 0 0 0 0 0 0 0 0 0 0 0 0 0 0 0 0 0 0 0 0 0 0 0 0 0 0 0 0 0 0 0 0 0 0 0 1
0 0 0 0 0 0 0 0 0 0 0 0 0 0 0 0 0 0 0 0 0 0 0 0 0 0 0 0 0 0 0 0 0 0 0 0 0 0 0 0 0 0 0 1 1
0 0 0 0 0 0 0 0 0 0 0 0 0 0 0 0 0 0 0 0 0 0 0 0 0 0 0 0 0 0 0 0 0 0 0 0 0 0 0 0 0 0 0 1 2
0 0 0 0 0 0 0 0 0 0 0 0 0 0 0 0 -0 0 0 0 0 0 0 0 0 0 0 0 0 0 0 0 0 0 0 0 0 0 0 -0 0 0 0 2 1
0 0 0 0 0 0 0 0 0 0 0 0 0 0 0 0 0 0 0 0 0 0 0 0 0 0 0 0 0 0 0 0 0 0 0 0 0 0 0 -0 -0 0 0 0 1
0 0 0 0 0 0 0 0 0 0 0 0 0 0 0 -0 0 0 0 0 0 0 0 0 0 0 0 0 0 0 0 0 0 0 0 0 0 0 0 0 -0 -0 0 0 2
0 0 0 0 0 0 0 0 0 0 0 0 0 0 0 -0 0 0 0 0 0 0 0 0 0 0 0 0 0 0 0 0 0 0 0 0 0 0 0 -0 -0 -0 0 0 1
0 0 0 0 0 0 0 0 0 0 0 0 0 0 0 0 0 0 0 0 0 0 0 0 0 0 0 0 0 0 0 0 0 0 0 0 0 0 0 -0 -0 -0 0 0 1
0 0 0 0 0 0 0 0 0 0 0 0 0 0 0 0 0 0 0 0 0 0 0 0 0 0 0 0 0 0 0 0 0 0 0 0 -0 0 -0 -0 -0 -0 -0 0 1
0 0 0 0 0 0 0 0 0 0 0 0 0 0 0 0 0 0 0 0 0 0 0 0 0 0 0 0 0 0 0 0 0 0 0 0 -0 0 -0 -0 -0 -0 0 -0 0
0 0 0 0 0 0 0 0 0 0 0 0 0 0 0 0 0 0 0 0 0 0 0 0 0 0 0 0 -0 -0 0 0 0 -0 -0 0 -0 0 -0 -0 -0 0 0 -0 0
0 0 0 0 0 -0 0 0 0 0 0 0 0 0 0 0 0 0 0 0 0 0 0 0 0 0 0 0 0 -0 -0 -0 -0 -0 -0 -0 0 -0 -0 -0 -0 0 0 0 0
0 0 0 0 0 0 0 0 0 0 0 0 0 -0 0 0 0 0 0 0 0 0 0 0 0 0 0 0 0 0 -0 -0 0 0 -0 -0 0 -0 -0 0 -0 0 0 0 0
0 0 0 0 0 0 0 0 0 0 0 0 0 0 0 0 0 0 0 0 0 0 0 0 0 0 0 0 0 -0 -0 -0 -0 -0 0 0 0 -0 -0 -0 -0 0 0 0 0
0 0 0 0 0 0 0 0 0 0 0 0 0 0 0 0 0 0 0 0 0 0 0 0 0 0 0 0 0 -0 -0 -0 -0 0 -0 -0 0 -0 -0 0 -0 0 0 0 0
0 0 0 0 0 0 0 0 0 0 0 0 0 0 0 0 0 0 0 0 0 0 0 -0 0 0 0 0 0 0 0 -0 0 -0 0 -0 -0 -0 0 -0 0 0 0 0 0
0 0 0 0 0 0 0 0 0 0 0 0 0 0 0 0 0 0 0 0 0 0 0 0 -0 0 0 -0 -0 0 -0 -0 -0 0 0 -0 -0 -0 -0 0 0 0 0 1 1
0 0 0 0 0 0 0 0 0 0 0 0 0 0 0 0 0 0 -0 0 0 0 0 -0 -0 0 0 0 0 -0 -0 0 0 -0 -0 0 -0 -0 0 0 0 1 1 1 1
0 0 0 0 0 0 0 0 0 0 0 0 0 0 0 0 0 0 0 0 0 0 0 0 0 0 0 0 -0 0 0 -0 -0 -0 -0 -0 -0 -0 0 0 0 0 1 1 1
0 0 0 0 0 0 0 0 0 0 0 0 0 0 0 0 0 0 0 0 0 0 0 0 -0 0 -0 -0 -0 0 -0 -0 -0 -0 -0 0 -0 -0 -0 0 0 0 0 0 0
0 0 0 0 0 0 0 0 0 0 0 0 0 0 0 0 0 0 0 0 0 0 0 0 0 0 -0 -0 -0 -0 -0 -0 -0 -0 0 0 0 -0 0 0 0 0 0 0 0
0 0 0 0 0 0 0 0 0 0 0 0 0 0 0 0 0 0 0 0 0 0 0 0 0 -0 -0 -0 0 0 -0 0 0 0 0 0 0 0 -0 0 -0 0 0 0 0
0 0 0 0 0 0 0 0 0 0 0 0 0 0 0 0 0 0 0 0 0 0 0 0 0 0 -0 0 0 0 0 0 0 0 0 0 0 -0 -0 0 0 0 0 0 0
0 0 0 0 0 0 0 0 0 0 0 0 0 0 0 0 0 0 0 0 0 0 0 0 0 0 0 0 0 0 0 0 0 0 0 0 0 0 0 0 0 0 0 0 0
0 0 0 0 0 0 0 0 0 0 0 0 0 0 0 0 0 0 0 0 0 0 0 0 0 0 0 0 0 0 0 0 0 0 0 0 0 0 0 0 0 0 0 0 0
0 0 0 0 0 0 0 0 0 0 0 0 0 0 0 0 0 0 0 0 0 0 0 0 0 0 0 0 0 -0 0 0 0 0 0 0 -0 0 0 -0 0 0 0 0 0
0 0 0 0 0 0 0 0 0 0 0 0 0 0 0 0 0 0 0 0 0 0 0 0 0 0 0 0 0 0 0 0 0 0 0 0 0 0 0 0 0 0 0 0 0
Wind_Speed_500mb
25 18 11 8 8 9 10 11 12 12 15 16 16 15 16 18 20 19 18 16 12 18 18 15 13 13 14 19 24 19 20 31 50 54 58 52 37 47 53 55 66 67 63 43 57
26 23 18 13 11 12 11 11 14 14 15 15 15 16 17 20 25 28 23 20 17 18 8 11 15 16 20 20 18 26 28 48 42 45 50 54 67 37 25 58 52 73 52 25 59
29 25 25 19 14 13 13 13 13 15 14 14 16 16 18 21 24 8 7 22 13 16 10 11 13 17 25 29 37 38 42 45 47 55 59 56 39 39 45 42 65 70 52 40 55
31 29 23 21 18 17 15 14 13 11 10 11 12 12 18 10 8 6 5 15 22 16 11 13 17 24 25 25 38 42 58 59 61 64 58 49 65 51 55 60 69 83 75 50 66
28 30 26 24 20 20 19 18 15 10 9 10 12 15 12 15 25 22 16 24 21 20 17 20 26 28 34 30 34 41 52 66 67 59 56 55 60 50 65 67 71 88 88 73 73
32 30 31 26 22 20 21 21 17 13 10 11 11 15 12 25 22 20 18 21 20 19 22 22 23 25 36 44 38 40 53 55 62 69 66 48 51 61 92 77 68 69 92 80 78
36 31 31 29 24 21 22 23 22 19 15 16 14 13 23 36 21 18 20 19 22 22 29 29 30 29 18 26 47 50 46 47 54 64 54 59 54 59 87 63 58 67 88 82 75
37 34 33 32 27 21 21 23 24 24 22 22 16 11 19 25 26 22 16 21 24 26 29 29 34 38 38 23 26 37 43 39 48 51 59 56 53 51 86 63 68 67 94 87 81
37 36 37 35 27 21 19 21 23 26 27 24 11 12 17 20 13 13 17 19 18 22 26 24 23 14 7 14 22 29 35 46 52 42 42 43 49 63 79 70 64 61 75 98 72
32 44 39 37 28 23 17 17 22 27 25 23 17 13 24 10 10 11 12 13 10 12 16 13 7 8 9 13 28 31 34 40 45 42 46 54 55 48 43 56 48 42 74 72 63
53 41 38 34 25 19 13 13 7 10 25 23 11 10 3 9 18 6 8 8 12 17 17 24 16 26 28 40 45 42 47 48 44 48 32 47 48 46 32 30 38 34 74 64 82
39 39 36 36 29 18 12 8 13 15 25 35 40 37 29 21 12 11 9 8 13 20 19 16 34 42 36 40 39 43 47 56 54 48 25 33 47 44 31 30 34 40 54 66 55
34 38 36 34 30 19 10 15 19 14 14 9 14 11 10 17 11 15 19 9 10 23 28 33 28 7 21 34 39 42 42 51 47 38 31 34 27 44 41 32 27 30 53 61 63
35 37 38 33 17 13 9 14 14 7 8 9 7 5 7 7 9 17 19 11 9 16 27 31 30 26 25 31 33 37 47 50 43 30 9 14 3 31 35 36 30 37 46 64 74
39 36 36 32 20 9 15 14 7 5 9 7 8 9 9 11 2 16 18 14 19 21 12 22 26 23 23 21 17 26 28 30 36 22 19 10 9 9 19 28 39 43 60 65 76
39 36 33 27 17 14 11 5 4 5 12 6 8 6 8 15 9 7 12 19 19 19 27 54 60 41 22 14 15 14 15 26 29 8 10 10 7 5 18 43 47 44 60 68 78
36 38 32 23 8 11 1 3 4 9 5 2 3 7 9 9 10 15 10 11 9 9 6 33 25 26 21 26 15 6 6 6 9 8 3 10 10 17 28 30 42 47 58 67 71
38 36 33 20 11 4 9 4 9 3 5 5 5 13 11 9 11 12 10 12 24 22 17 12 12 8 3 13 17 24 10 8 11 9 8 4 10 5 18 17 42 45 64 72 70
40 32 16 14 3 14 7 7 7 7 7 16 19 10 10 6 4 9 15 7 2 15 9 11 11 10 17 19 16 10 7 8 10 11 8 3 8 12 12 5 28 27 52 60 48
39 17 12 7 7 10 5 10 6 7 11 6 9 4 7 4 5 4 8 6 2 3 5 9 18 17 10 14 23 19 15 6 5 10 9 9 6 14 19 7 24 42 41 52 54
31 12 10 2 10 5 6 9 8 5 7 6 9 10 10 7 5 5 10 4 6 6 10 10 11 13 15 9 14 7 9 8 5 5 8 12 11 16 13 9 20 21 32 51 62
15 6 9 5 5 4 6 7 9 8 4 7 7 10 8 11 10 8 10 6 5 1 8 6 10 16 34 27 5 15 22 17 8 5 4 7 8 20 17 12 18 26 30 34 44
9 9 6 12 6 6 9 9 9 6 8 5 8 13 2 7 12 16 10 3 3 2 3 6 8 14 10 8 7 13 12 20 15 9 11 9 4 11 22 13 3 18 33 35 37
7 3 5 10 8 8 8 13 8 13 10 9 10 8 11 14 21 14 10 4 4 11 8 5 9 24 23 18 17 18 24 15 20 16 14 17 17 5 14 25 11 6 13 32 34
11 9 8 5 10 8 2 4 8 8 11 7 8 19 13 10 21 25 25 15 13 5 8 6 15 30 39 42 39 37 36 34 28 28 23 24 23 21 20 17 13 10 8 14 21
11 10 4 7 6 8 11 9 8 10 9 10 13 20 10 17 20 26 25 23 16 7 8 7 9 19 30 36 41 47 45 41 43 41 37 33 36 30 26 4 5 5 10 7 16
20 27 12 11 8 8 9 12 13 11 17 32 21 20 22 28 34 45 44 34 29 18 10 8 8 8 22 20 20 25 40 45 42 39 36 36 33 28 25 10 9 11 6 10 13
Wind_Direction_500mb
359 351 342 331 326 320 318 317 317 316 316 313 304 302 306 316 313 305 288 256 269 261 285 301 308 297 287 260 247 254 248 249 247 253 267 266 278 273 292 301 243 248 219 236 200
359 348 331 319 310 304 303 316 325 321 318 316 322 321 311 314 314 302 273 266 254 263 295 294 296 293 273 258 239 229 240 247 253 262 267 264 248 266 304 291 291 247 219 236 172
0 350 336 316 303 297 297 306 313 322 329 327 319 316 316 323 322 268 251 222 212 252 266 285 287 284 268 258 244 246 249 267 263 263 266 261 250 259 265 263 257 273 218 214 186
354 349 338 318 303 294 286 287 297 313 315 317 313 296 306 313 274 239 235 178 221 253 261 274 279 267 269 262 252 254 259 263 267 272 272 269 273 251 252 252 264 274 291 205 199
347 349 341 326 304 290 278 273 280 297 306 313 305 286 300 263 264 258 223 222 247 254 254 263 270 274 263 266 273 259 265 265 267 269 265 271 265 240 255 253 258 267 294 282 199
349 341 342 332 310 289 276 267 269 273 281 307 299 288 261 258 239 262 226 243 238 250 267 263 260 273 282 266 261 265 274 271 260 260 260 258 260 250 253 254 253 268 272 274 198
352 343 339 335 318 293 278 266 264 262 268 288 298 250 260 255 260 262 261 251 247 259 268 270 268 263 276 277 264 270 268 269 256 255 256 251 256 251 253 251 251 261 268 275 217
356 349 340 337 325 298 280 270 262 264 266 276 290 238 256 249 241 259 253 256 266 265 258 266 268 265 258 266 284 276 268 263 261 246 244 239 251 253 250 243 240 248 272 279 235
356 356 345 336 328 306 286 276 268 266 262 270 267 239 265 258 245 242 242 250 265 263 261 264 273 232 225 237 267 247 259 262 266 244 241 229 241 252 255 224 228 231 262 270 246
345 342 339 335 330 311 300 285 277 270 268 261 241 254 235 237 205 275 235 238 240 261 243 217 214 229 225 216 252 267 254 254 263 265 252 231 230 244 234 196 219 216 258 272 256
327 330 325 332 326 316 315 313 294 260 221 215 227 239 194 248 295 244 244 217 233 237 239 191 229 234 234 236 246 267 277 274 271 274 301 236 227 230 197 213 215 216 237 266 243
333 330 323 324 316 319 309 271 287 290 292 248 247 252 258 258 259 222 177 206 223 242 220 243 248 253 250 258 255 264 271 266 272 277 235 230 232 226 214 207 207 227 254 272 273
338 337 332 326 316 310 303 281 291 301 269 240 216 236 212 205 245 215 184 187 260 259 246 243 255 227 251 250 259 249 251 263 271 293 271 255 216 213 215 209 211 225 252 262 274
326 326 333 334 337 311 314 313 314 319 282 179 195 174 186 200 261 205 197 203 218 266 265 268 273 264 258 255 241 247 243 247 265 270 304 216 238 192 192 208 222 238 259 256 256
320 320 324 326 301 318 294 317 328 352 297 125 151 184 187 218 322 216 200 191 243 259 302 264 289 283 255 248 194 239 245 256 250 248 286 199 245 145 170 227 222 230 240 241 225
320 321 324 324 315 282 306 327 8 238 246 144 156 198 206 202 223 149 206 232 270 282 248 258 269 286 257 269 181 264 248 243 254 244 238 172 308 262 185 226 227 225 226 225 200
329 326 321 309 242 297 115 86 283 240 83 210 230 192 225 218 217 202 207 222 242 286 303 307 281 240 257 281 177 171 268 206 216 213 319 123 210 263 275 207 227 210 191 202 192
329 327 319 301 267 221 137 212 229 178 336 34 262 246 241 177 219 215 247 261 228 245 291 292 316 236 65 290 307 303 304 358 319 333 7 184 232 64 359 285 158 152 177 179 181
334 328 320 309 213 157 185 232 275 352 329 330 300 262 235 172 245 240 225 271 110 202 258 312 269 307 279 293 293 349 310 329 280 239 277 150 260 93 39 216 143 151 164 169 158
335 319 302 319 161 146 229 261 290 347 324 292 287 356 303 54 267 212 280 118 121 209 232 313 285 289 305 284 243 256 333 292 307 326 316 356 330 41 19 189 175 168 176 181 172
336 302 304 54 149 225 244 266 306 1 332 298 307 297 288 294 251 267 273 167 165 160 195 271 254 282 305 232 308 232 258 237 286 277 323 333 60 15 348 279 209 195 185 170 176
330 282 291 193 249 248 260 297 328 293 260 268 278 266 260 298 276 254 262 222 136 213 285 345 298 281 269 283 311 281 281 288 283 22 314 294 23 25 356 263 226 199 190 176 189
283 261 253 189 246 225 245 266 255 253 248 222 262 231 263 271 289 266 276 65 206 254 265 8 262 302 269 146 193 264 277 257 293 283 273 292 37 63 49 77 226 218 178 180 190
254 273 241 199 242 277 277 265 247 217 260 245 273 262 267 267 243 277 273 284 267 248 182 142 256 258 272 302 306 304 325 291 267 263 250 246 299 228 34 31 33 225 224 194 177
225 231 202 222 235 211 306 300 274 268 229 221 260 239 260 278 288 256 272 280 269 254 233 238 264 267 271 276 280 278 275 273 270 265 258 266 272 280 13 33 40 39 125 173 183
206 227 194 268 260 202 197 223 254 269 220 227 232 265 264 242 249 297 307 291 281 241 248 220 271 294 280 277 270 268 263 257 255 254 259 265 266 280 298 128 331 76 82 149 187
249 241 244 201 176 210 204 226 248 273 249 257 266 282 264 258 272 274 278 264 257 252 245 237 256 260 278 298 311 274 249 244 245 242 243 245 256 274 279 282 14 51 20 53 65
Wind_Speed_850mb
25 18 11 8 8 9 10 11 12 12 15 16 16 15 16 18 20 19 18 16 12 18 18 15 13 13 14 19 24 19 20 31 50 54 58 52 37 47 53 55 66 67 63 43 57
26 23 18 13 11 12 11 11 14 14 15 15 15 16 17 20 25 28 23 20 17 18 8 11 15 16 20 20 18 26 28 48 42 45 50 54 67 37 25 58 52 73 52 25 59
29 25 25 19 14 13 13 13 13 15 14 14 16 16 18 21 24 8 7 22 13 16 10 11 13 17 25 29 37 38 42 45 47 55 59 56 39 39 45 42 65 70 52 40 55
31 29 23 21 18 17 15 14 13 11 10 11 12 12 18 10 8 6 5 15 22 16 11 13 17 24 25 25 38 42 58 59 61 64 58 49 65 51 55 60 69 83 75 50 66
28 30 26 24 20 20 19 18 15 10 9 10 12 15 12 15 25 22 16 24 21 20 17 20 26 28 34 30 34 41 52 66 67 59 56 55 60 50 65 67 71 88 88 73 73
32 30 31 26 22 20 21 21 17 13 10 11 11 15 12 25 22 20 18 21 20 19 22 22 23 25 36 44 38 40 53 55 62 69 66 48 51 61 92 77 68 69 92 80 78
36 31 31 29 24 21 22 23 22 19 15 16 14 13 23 36 21 18 20 19 22 22 29 29 30 29 18 26 47 50 46 47 54 64 54 59 54 59 87 63 58 67 88 82 75
37 34 33 32 27 21 21 23 24 24 22 22 16 11 19 25 26 22 16 21 24 26 29 29 34 38 38 23 26 37 43 39 48 51 59 56 53 51 86 63 68 67 94 87 81
37 36 37 35 27 21 19 21 23 26 27 24 11 12 17 20 13 13 17 19 18 22 26 24 23 14 7 14 22 29 35 46 52 42 42 43 49 63 79 70 64 61 75 98 72
32 44 39 37 28 23 17 17 22 27 25 23 17 13 24 10 10 11 12 13 10 12 16 13 7 8 9 13 28 31 34 40 45 42 46 54 55 48 43 56 48 42 74 72 63
53 41 38 34 25 19 13 13 7 10 25 23 11 10 3 9 18 6 8 8 12 17 17 24 16 26 28 40 45 42 47 48 44 48 32 47 48 46 32 30 38 34 74 64 82
39 39 36 36 29 18 12 8 13 15 25 35 40 37 29 21 12 11 9 8 13 20 19 16 34 42 36 40 39 43 47 56 54 48 25 33 47 44 31 30 34 40 54 66 55
34 38 36 34 30 19 10 15 19 14 14 9 14 11 10 17 11 15 19 9 10 23 28 33 28 7 21 34 39 42 42 51 47 38 31 34 27 44 41 32 27 30 53 61 63
35 37 38 33 17 13 9 14 14 7 8 9 7 5 7 7 9 17 19 11 9 16 27 31 30 26 25 31 33 37 47 50 43 30 9 14 3 31 35 36 30 37 46 64 74
39 36 36 32 20 9 15 14 7 5 9 7 8 9 9 11 2 16 18 14 19 21 12 22 26 23 23 21 17 26 28 30 36 22 19 10 9 9 19 28 39 43 60 65 76
39 36 33 27 17 14 11 5 4 5 12 6 8 6 8 15 9 7 12 19 19 19 27 54 60 41 22 14 15 14 15 26 29 8 10 10 7 5 18 43 47 44 60 68 78
36 38 32 23 8 11 1 3 4 9 5 2 3 7 9 9 10 15 10 11 9 9 6 33 25 26 21 26 15 6 6 6 9 8 3 10 10 17 28 30 42 47 58 67 71
38 36 33 20 11 4 9 4 9 3 5 5 5 13 11 9 11 12 10 12 24 22 17 12 12 8 3 13 17 24 10 8 11 9 8 4 10 5 18 17 42 45 64 72 70
40 32 16 14 3 14 7 7 7 7 7 16 19 10 10 6 4 9 15 7 2 15 9 11 11 10 17 19 16 10 7 8 10 11 8 3 8 12 12 5 28 27 52 60 48
39 17 12 7 7 10 5 10 6 7 11 6 9 4 7 4 5 4 8 6 2 3 5 9 18 17 10 14 23 19 15 6 5 10 9 9 6 14 19 7 24 42 41 52 54
31 12 10 2 10 5 6 9 8 5 7 6 9 10 10 7 5 5 10 4 6 6 10 10 11 13 15 9 14 7 9 8 5 5 8 12 11 16 13 9 20 21 32 51 62
15 6 9 5 5 4 6 7 9 8 4 7 7 10 8 11 10 8 10 6 5 1 8 6 10 16 34 27 5 15 22 17 8 5 4 7 8 20 17 12 18 26 30 34 44
9 9 6 12 6 6 9 9 9 6 8 5 8 13 2 7 12 16 10 3 3 2 3 6 8 14 10 8 7 13 12 20 15 9 11 9 4 11 22 13 3 18 33 35 37
7 3 5 10 8 8 8 13 8 13 10 9 10 8 11 14 21 14 10 4 4 11 8 5 9 24 23 18 17 18 24 15 20 16 14 17 17 5 14 25 11 6 13 32 34
11 9 8 5 10 8 2 4 8 8 11 7 8 19 13 10 21 25 25 15 13 5 8 6 15 30 39 42 39 37 36 34 28 28 23 24 23 21 20 17 13 10 8 14 21
11 10 4 7 6 8 11 9 8 10 9 10 13 20 10 17 20 26 25 23 16 7 8 7 9 19 30 36 41 47 45 41 43 41 37 33 36 30 26 4 5 5 10 7 16
20 27 12 11 8 8 9 12 13 11 17 32 21 20 22 28 34 45 44 34 29 18 10 8 8 8 22 20 20 25 40 45 42 39 36 36 33 28 25 10 9 11 6 10 13
Wind_Direction_850mb
359 351 342 331 326 320 318 317 317 316 316 313 304 302 306 316 313 305 288 256 269 261 285 301 308 297 287 260 247 254 248 249 247 253 267 266 278 273 292 301 243 248 219 236 200
359 348 331 319 310 304 303 316 325 321 318 316 322 321 311 314 314 302 273 266 254 263 295 294 296 293 273 258 239 229 240 247 253 262 267 264 248 266 304 291 291 247 219 236 172
0 350 336 316 303 297 297 306 313 322 329 327 319 316 316 323 322 268 251 222 212 252 266 285 287 284 268 258 244 246 249 267 263 263 266 261 250 259 265 263 257 273 218 214 186
354 349 338 318 303 294 286 287 297 313 315 317 313 296 306 313 274 239 235 178 221 253 261 274 279 267 269 262 252 254 259 263 267 272 272 269 273 251 252 252 264 274 291 205 199
347 349 341 326 304 290 278 273 280 297 306 313 305 286 300 263 264 258 223 222 247 254 254 263 270 274 263 266 273 259 265 265 267 269 265 271 265 240 255 253 258 267 294 282 199
349 341 342 332 310 289 276 267 269 273 281 307 299 288 261 258 239 262 226 243 238 250 267 263 260 273 282 266 261 265 274 271 260 260 260 258 260 250 253 254 253 268 272 274 198
352 343 339 335 318 293 278 266 264 262 268 288 298 250 260 255 260 262 261 251 247 259 268 270 268 263 276 277 264 270 268 269 256 255 256 251 256 251 253 251 251 261 268 275 217
356 349 340 337 325 298 280 270 262 264 266 276 290 238 256 249 241 259 253 256 266 265 258 266 268 265 258 266 284 276 268 263 261 246 244 239 251 253 250 243 240 248 272 279 235
356 356 345 336 328 306 286 276 268 266 262 270 267 239 265 258 245 242 242 250 265 263 261 264 273 232 225 237 267 247 259 262 266 244 241 229 241 252 255 224 228 231 262 270 246
345 342 339 335 330 311 300 285 277 270 268 261 241 254 235 237 205 275 235 238 240 261 243 217 214 229 225 216 252 267 254 254 263 265 252 231 230 244 234 196 219 216 258 272 256
327 330 325 332 326 316 315 313 294 260 221 215 227 239 194 248 295 244 244 217 233 237 239 191 229 234 234 236 246 267 277 274 271 274 301 236 227 230 197 213 215 216 237 266 243
333 330 323 324 316 319 309 271 287 290 292 248 247 252 258 258 259 222 177 206 223 242 220 243 248 253 250 258 255 264 271 266 272 277 235 230 232 226 214 207 207 227 254 272 273
338 337 332 326 316 310 303 281 291 301 269 240 216 236 212 205 245 215 184 187 260 259 246 243 255 227 251 250 259 249 251 263 271 293 271 255 216 213 215 209 211 225 252 262 274
326 326 333 334 337 311 314 313 314 319 282 179 195 174 186 200 261 205 197 203 218 266 265 268 273 264 258 255 241 247 243 247 265 270 304 216 238 192 192 208 222 238 259 256 256
320 320 324 326 301 318 294 317 328 352 297 125 151 184 187 218 322 216 200 191 243 259 302 264 289 283 255 248 194 239 245 256 250 248 286 199 245 145 170 227 222 230 240 241 225
320 321 324 324 315 282 306 327 8 238 246 144 156 198 206 202 223 149 206 232 270 282 248 258 269 286 257 269 181 264 248 243 254 244 238 172 308 262 185 226 227 225 226 225 200
329 326 321 309 242 297 115 86 283 240 83 210 230 192 225 218 217 202 207 222 242 286 303 307 281 240 257 281 177 171 268 206 216 213 319 123 210 263 275 207 227 210 191 202 192
329 327 319 301 267 221 137 212 229 178 336 34 262 246 241 177 219 215 247 261 228 245 291 292 316 236 65 290 307 303 304 358 319 333 7 184 232 64 359 285 158 152 177 179 181
334 328 320 309 213 157 185 232 275 352 329 330 300 262 235 172 245 240 225 271 110 202 258 312 269 307 279 293 293 349 310 329 280 239 277 150 260 93 39 216 143 151 164 169 158
335 319 302 319 161 146 229 261 290 347 324 292 287 356 303 54 267 212 280 118 121 209 232 313 285 289 305 284 243 256 333 292 307 326 316 356 330 41 19 189 175 168 176 181 172
336 302 304 54 149 225 244 266 306 1 332 298 307 297 288 294 251 267 273 167 165 160 195 271 254 282 305 232 308 232 258 237 286 277 323 333 60 15 348 279 209 195 185 170 176
330 282 291 193 249 248 260 297 328 293 260 268 278 266 260 298 276 254 262 222 136 213 285 345 298 281 269 283 311 281 281 288 283 22 314 294 23 25 356 263 226 199 190 176 189
283 261 253 189 246 225 245 266 255 253 248 222 262 231 263 271 289 266 276 65 206 254 265 8 262 302 269 146 193 264 277 257 293 283 273 292 37 63 49 77 226 218 178 180 190
254 273 241 199 242 277 277 265 247 217 260 245 273 262 267 267 243 277 273 284 267 248 182 142 256 258 272 302 306 304 325 291 267 263 250 246 299 228 34 31 33 225 224 194 177
225 231 202 222 235 211 306 300 274 268 229 221 260 239 260 278 288 256 272 280 269 254 233 238 264 267 271 276 280 278 275 273 270 265 258 266 272 280 13 33 40 39 125 173 183
206 227 194 268 260 202 197 223 254 269 220 227 232 265 264 242 249 297 307 291 281 241 248 220 271 294 280 277 270 268 263 257 255 254 259 265 266 280 298 128 331 76 82 149 187
249 241 244 201 176 210 204 226 248 273 249 257 266 282 264 258 272 274 278 264 257 252 245 237 256 260 278 298 311 274 249 244 245 242 243 245 256 274 279 282 14 51 20 53 65